Weather History for North Platte, NE

Change the Weather History Date:

Wednesday, September 11, 2013

  Actual Average Record
Temperature  
Mean Temperature 69 °F 64 °F  
Max Temperature 76 °F 80 °F 100 °F (1895)
Min Temperature 61 °F 49 °F 32 °F (1878)
Degree Days  
Heating Degree Days 0 3  
Month to date heating degree days 0 27  
Since 1 July heating degree days 13 47  
Cooling Degree Days 4 3  
Month to date cooling degree days 130 43  
Year to date cooling degree days 967 738  
Growing Degree Days 18 (Base 50)    
Moisture  
Dew Point 62 °F    
Average Humidity 79    
Maximum Humidity 97    
Minimum Humidity 60    
Precipitation  
Precipitation 0.34 in 0.05 in 1.20 in (1947)
Month to date precipitation 0.84 0.53  
Year to date precipitation 15.20 16.75  
Snow  
Snow 0.00 in 0.00 in 0.00 in (2002)
Month to date snowfall 0.0 0.0  
Since 1 July snowfall 0.0 0.0  
Since 1 September snowfall 0.0 0.0  
Snow Depth 0.00 in    
Sea Level Pressure  
Sea Level Pressure 30.12 in    
Wind  
Wind Speed 4 mph (East)    
Max Wind Speed 12 mph    
Max Gust Speed 14 mph    
Visibility 9 miles    
Events Rain    
T = Trace of Precipitation, MM = Missing Value Source: NWS Daily Summary

Daily Weather History Graph

Daily Weather History Graph

Search for Another Location

Airport:

Trip Planner

Search our weather history database for the weather conditions in past years. The results will help you decide how hot, cold, wet, or windy it might be!

Date:

Astronomy

Sep. 11, 2013 Rise Set
Actual Time 7:19 AM CDT 7:58 PM CDT
Civil Twilight 6:51 AM CDT 8:25 PM CDT
Nautical Twilight 6:18 AM CDT 8:58 PM CDT
Astronomical Twilight 5:44 AM CDT 9:32 PM CDT
Moon 1:53 PM CDT (9/11) 11:52 PM CDT (9/11)
Length of Visible Light 13h 34m
Length of Day
12h 38m
Waxing Crescent, 39% of the Moon is Illuminated
Sep 11
Waxing Crescent
Sep 12
First Quarter
Sep 19
Full
Sep 26
Last Quarter
Oct 4
New

Hourly Weather History & Observations

Time (CDT) Temp. Dew Point Humidity Pressure Visibility Wind Dir Wind Speed Gust Speed Precip Events Conditions
12:53 AM 64.9 °F 60.1 °F 84% 30.06 in 10.0 mi East 4.6 mph - N/A   Clear
1:53 AM 64.0 °F 59.0 °F 84% 30.07 in 10.0 mi NE 8.1 mph - N/A   Clear
2:53 AM 64.0 °F 60.1 °F 87% 30.06 in 10.0 mi NE 5.8 mph - N/A   Clear
3:53 AM 64.0 °F 60.1 °F 87% 30.07 in 10.0 mi NE 5.8 mph - N/A   Clear
4:53 AM 64.0 °F 60.1 °F 87% 30.06 in 10.0 mi NE 5.8 mph - N/A   Clear
5:53 AM 62.1 °F 60.1 °F 93% 30.07 in 10.0 mi Calm Calm - N/A   Clear
6:53 AM 61.0 °F 59.0 °F 93% 30.10 in 10.0 mi ESE 3.5 mph - N/A   Clear
7:53 AM 63.0 °F 59.0 °F 87% 30.11 in 10.0 mi Calm Calm - N/A   Clear
8:53 AM 66.0 °F 61.0 °F 84% 30.12 in 10.0 mi NE 3.5 mph - N/A   Clear
9:53 AM 70.0 °F 61.0 °F 73% 30.14 in 10.0 mi ENE 4.6 mph - N/A   Overcast
10:53 AM 71.1 °F 62.1 °F 73% 30.14 in 10.0 mi SE 4.6 mph - N/A   Partly Cloudy
11:53 AM 73.0 °F 61.0 °F 66% 30.14 in 10.0 mi SE 6.9 mph - N/A   Mostly Cloudy
12:53 PM 75.9 °F 60.1 °F 58% 30.13 in 10.0 mi East 8.1 mph - N/A   Mostly Cloudy
1:53 PM 73.9 °F 63.0 °F 68% 30.13 in 10.0 mi SSE 4.6 mph - N/A   Overcast
2:53 PM 75.9 °F 62.1 °F 62% 30.12 in 10.0 mi SSE 3.5 mph - 0.00 in   Mostly Cloudy
3:53 PM 72.0 °F 63.0 °F 73% 30.12 in 10.0 mi ESE 6.9 mph - N/A   Overcast
4:17 PM 69.8 °F 64.4 °F 83% 30.18 in 1.8 mi Calm Calm - 0.04 in Rain Heavy Rain
4:42 PM 66.2 °F 64.4 °F 94% 30.17 in 1.0 mi ESE 5.8 mph - 0.18 in Rain Heavy Rain
4:46 PM 66.2 °F 64.4 °F 94% 30.17 in 2.0 mi East 6.9 mph - 0.20 in Rain Heavy Rain
4:53 PM 66.9 °F 66.0 °F 97% 30.12 in 2.5 mi East 6.9 mph - 0.24 in Rain Heavy Rain
5:02 PM 66.2 °F 64.4 °F 94% 30.17 in 4.0 mi East 8.1 mph - 0.02 in Rain Light Rain
5:53 PM 66.9 °F 64.0 °F 90% 30.13 in 10.0 mi Calm Calm - 0.03 in Rain Light Rain
6:53 PM 66.9 °F 64.9 °F 93% 30.14 in 7.0 mi East 3.5 mph - 0.04 in Rain Light Rain
7:53 PM 66.9 °F 64.9 °F 93% 30.14 in 10.0 mi SSE 4.6 mph - 0.01 in Rain Light Rain
8:53 PM 66.9 °F 64.9 °F 93% 30.17 in 8.0 mi SSE 4.6 mph - 0.02 in Rain Light Rain
9:53 PM 66.9 °F 64.0 °F 90% 30.17 in 10.0 mi East 3.5 mph - 0.00 in   Mostly Cloudy
10:53 PM 66.0 °F 64.0 °F 93% 30.16 in 10.0 mi ENE 4.6 mph - 0.00 in   Overcast
11:53 PM 66.0 °F 64.0 °F 93% 30.16 in 10.0 mi Calm Calm - N/A   Overcast